CW6406 Weather Reports


time (UTC)temp
F
wind
direction
speed
knots
gust
knots
rain 1hr
in
rain 24hr
in
rain mn
in
humidity
%
barometer
mb
20260507174523 54 360 0.0 4.3 0.00 0.02 0.02 65 1009.7
20260507173048 54 360 0.9 4.3 0.01 0.02 0.02 63 1009.8
20260507171505 54 360 0.0 3.5 0.01 0.02 0.02 63 1010.1
20260507170058 55 360 0.0 3.5 0.01 0.02 0.02 67 1010.1
20260507164517 54 360 0.0 2.6 0.01 0.02 0.02 67 1010.2
20260507163028 55 360 0.9 5.2 0.00 0.01 0.01 60 1010.3
20260507161554 55 360 1.7 4.3 0.00 0.01 0.01 57 1010.7
20260507160054 55 360 1.7 6.1 0.00 0.01 0.01 60 1010.9
20260507154516 56 360 1.7 5.2 0.00 0.01 0.01 61 1010.9
20260507153100 56 360 0.0 5.2 0.00 0.01 0.01 65 1010.7
20260507151515 56 360 0.0 5.2 0.00 0.01 0.01 67 1010.5
20260507150018 56 360 0.9 5.2 0.00 0.05 0.01 69 1010.7
20260507144546 56 360 0.9 4.3 0.00 0.05 0.01 72 1010.8
20260507143104 56 360 0.9 4.3 0.00 0.05 0.01 74 1011.0
20260507141509 56 360 1.7 5.2 0.00 0.05 0.01 76 1010.9
20260507140017 55 360 1.7 6.1 0.00 0.05 0.01 77 1011.2
20260507134548 55 360 0.0 5.2 0.00 0.10 0.01 78 1011.4
20260507133012 55 360 0.0 6.1 0.00 0.10 0.01 80 1011.1
20260507131546 55 360 0.0 2.6 0.00 0.10 0.01 80 1011.1
20260507130043 55 360 0.0 3.5 0.00 0.11 0.01 80 1010.8
20260507124514 55 360 0.9 3.5 0.00 0.11 0.01 79 1010.8
20260507123034 55 360 0.0 2.6 0.00 0.11 0.01 82 1010.8
20260507121559 55 360 0.0 2.6 0.00 0.11 0.01 81 1010.6
20260507120057 55 360 0.0 1.7 0.00 0.11 0.01 81 1010.8
20260507114510 55 360 0.9 2.6 0.00 0.12 0.01 81 1010.3
20260507113027 54 360 0.0 3.5 0.00 0.12 0.01 83 1010.3
20260507111558 54 360 0.0 2.6 0.00 0.12 0.01 84 1010.1
20260507110059 54 360 0.0 2.6 0.00 0.12 0.01 85 1010.2
20260507104512 53 360 0.0 2.6 0.00 0.12 0.01 87 1010.0
20260507103044 53 360 0.0 1.7 0.00 0.12 0.01 88 1009.8
20260507101504 53 360 0.0 3.5 0.00 0.12 0.01 89 1009.8
20260507100016 54 360 0.0 3.5 0.00 0.12 0.01 89 1009.4
20260507094536 54 360 0.0 0.9 0.00 0.12 0.01 90 1009.4
20260507093014 54 360 0.0 1.7 0.00 0.12 0.01 89 1009.9
20260507091534 54 360 0.0 3.5 0.00 0.12 0.01 89 1009.9
20260507090032 55 360 0.0 4.3 0.00 0.12 0.01 88 1009.7
20260507084548 55 360 0.0 1.7 0.00 0.12 0.01 89 1009.9
20260507083018 55 360 0.0 1.7 0.00 0.12 0.01 89 1009.6
20260507081535 56 360 0.9 4.3 0.00 0.12 0.01 89 1009.3
20260507080049 56 360 0.9 7.0 0.00 0.12 0.01 90 1009.6
20260507074513 57 360 0.0 2.6 0.00 0.12 0.01 93 1009.1
20260507073032 57 360 0.0 3.5 0.00 0.12 0.01 93 1008.6
20260507071606 57 360 0.9 3.5 0.00 0.12 0.01 93 1008.5
20260507064527 58 360 0.0 3.5 0.00 0.12 0.01 93 1008.7
20260507063047 58 360 0.0 5.2 0.00 0.12 0.01 92 1008.6
20260507061515 60 360 0.9 3.5 0.00 0.12 0.01 93 1008.5
20260507060003 62 360 0.0 3.5 0.01 0.12 0.01 94 1008.6
20260507054522 63 360 0.0 2.6 0.01 0.12 0.01 93 1007.2
20260507053051 64 360 0.0 1.7 0.01 0.12 0.01 93 1007.3
20260507051512 65 360 0.0 0.0 0.01 0.12 0.01 92 1007.1
20260507050034 65 360 0.0 1.7 0.00 0.11 0.00 91 1007.8
20260507044546 66 360 0.0 3.5 0.00 0.11 0.00 90 1008.0
20260507043007 66 360 0.9 4.3 0.00 0.11 0.00 89 1007.9
20260507041537 66 360 0.0 4.3 0.00 0.11 0.00 89 1007.8
20260507040041 66 360 0.0 2.6 0.00 0.11 0.00 88 1007.6
20260507034551 66 360 0.0 2.6 0.00 0.11 0.11 88 1008.0
20260507033016 66 360 0.0 2.6 0.00 0.11 0.11 88 1008.0
20260507031539 66 360 0.0 1.7 0.00 0.11 0.11 88 1007.6
20260507030045 66 360 0.0 0.9 0.00 0.11 0.11 87 1007.9
20260507024516 66 360 0.0 2.6 0.00 0.11 0.11 87 1008.0
20260507023035 66 360 0.0 3.5 0.00 0.11 0.11 86 1007.4
20260507021634 66 360 0.0 2.6 0.00 0.11 0.11 87 1007.2
20260507020109 66 360 0.0 3.5 0.00 0.11 0.11 87 1007.3
20260507014521 66 360 0.0 4.3 0.00 0.11 0.11 87 1007.5
20260507013048 66 360 0.0 2.6 0.00 0.11 0.11 87 1007.7
20260507011517 66 360 0.0 1.7 0.00 0.11 0.11 86 1007.6
20260507010028 67 360 0.0 1.7 0.00 0.11 0.11 86 1007.6
20260507004548 67 360 0.9 3.5 0.00 0.11 0.11 86 1007.5
20260507003010 67 360 0.0 2.6 0.00 0.11 0.11 85 1007.3
20260507001544 67 360 0.0 2.6 0.00 0.11 0.11 83 1007.2
20260507000048 68 360 0.0 4.3 0.00 0.11 0.11 82 1007.2
20260506234605 68 360 0.0 2.6 0.00 0.11 0.11 82 1007.4
20260506233013 69 360 0.0 3.5 0.00 0.11 0.11 81 1007.5
20260506231524 70 360 0.0 6.1 0.00 0.11 0.11 79 1007.0
20260506230032 71 360 0.9 6.1 0.00 0.11 0.11 77 1007.1
20260506224505 71 360 0.9 3.5 0.00 0.11 0.11 77 1007.1
20260506223022 71 360 0.0 3.5 0.00 0.11 0.11 78 1007.0
20260506221601 70 360 1.7 6.1 0.00 0.11 0.11 78 1007.0
20260506220059 70 360 0.0 7.0 0.00 0.11 0.11 79 1007.2
20260506214520 70 360 1.7 4.3 0.00 0.11 0.11 79 1006.8
20260506213054 70 360 2.6 9.6 0.00 0.11 0.11 78 1006.8
20260506211508 70 360 1.7 9.6 0.00 0.11 0.11 78 1007.0
20260506210031 70 360 0.0 7.0 0.00 0.11 0.11 78 1006.9
20260506204542 70 360 2.6 7.8 0.00 0.11 0.11 77 1007.1
20260506203054 70 360 1.7 6.1 0.00 0.11 0.11 76 1007.0
20260506203001 70 360 1.7 6.1 0.00 0.11 0.11 77 1007.0
20260506201514 70 360 1.7 6.1 0.00 0.11 0.11 77 1007.1
20260506200030 70 360 1.7 9.6 0.00 0.11 0.11 79 1006.8
20260506194540 68 360 1.7 7.8 0.00 0.11 0.11 82 1007.1
20260506193100 66 360 2.6 5.2 0.00 0.11 0.11 83 1007.1
20260506193002 66 360 1.7 5.2 0.00 0.11 0.11 83 1007.2
20260506191520 66 360 2.6 7.0 0.00 0.11 0.11 83 1007.2
20260506190026 66 360 3.5 11.3 0.00 0.11 0.11 81 1007.5
20260506184557 66 360 2.6 6.1 0.00 0.11 0.11 83 1007.7
20260506184502 66 360 2.6 6.1 0.00 0.11 0.11 83 1007.7
20260506183024 66 360 2.6 7.0 0.00 0.11 0.11 83 1007.7
20260506181607 65 360 2.6 6.1 0.00 0.11 0.11 86 1007.9
20260506180044 65 360 0.9 6.1 0.00 0.11 0.11 86 1007.9